Location: Moscow
(55.7500°N, 37.5830°E)
Time: 03:23:25
(UTC+03:00)

Kosmos-337 - Pass Details

Date: 07 July 2022
Orbit: 1467 x 1552 km, 74.0° (Epoch: 13 August)

Event Time Altitude Azimuth Distance (km) Brightness Sun altitude
Rises 01:08:06 0° 332° (NNW) 4,737 ? -11.3°
Reaches altitude 10° 01:11:05 10° 330° (NNW) 3,751 ? -11.3°
Maximum altitude 01:20:10 68° 250° (WSW) 1,646 ? -11.0°
Drops below altitude 10° 01:29:07 10° 171° (S) 3,693 ? -10.8°
Enters shadow 01:29:13 10° 171° (S) 3,731 ? -10.8°
